Change the Weather History Date:

Wednesday, February 20, 2013

  Actual Average Record
Temperature  
Mean Temperature 32 °F 32 °F  
Max Temperature 44 °F 44 °F 64 °F (1958)
Min Temperature 20 °F 20 °F -16 °F (1955)
Degree Days  
Heating Degree Days 33 33  
Month to date heating degree days 741 713  
Since 1 July heating degree days 4739 4748  
Cooling Degree Days 0 0  
Month to date cooling degree days 0 0  
Year to date cooling degree days 0 0  
Moisture  
Dew Point 18 °F    
Average Humidity 54    
Maximum Humidity 77    
Minimum Humidity 30    
Precipitation  
Precipitation 0.00 in 0.03 in 0.40 in (1986)
Month to date precipitation 0.01 0.53  
Year to date precipitation 0.71 1.34  
Sea Level Pressure  
Sea Level Pressure 29.61 in    
Wind  
Wind Speed 8 mph (WSW)    
Max Wind Speed 25 mph    
Max Gust Speed 32 mph    
Visibility 10 miles    
Events      
T = Trace of Precipitation, MM = Missing Value Source: NWS Daily Summary

Daily Weather History Graph

Daily Weather History Graph

Search for Another Location

Airport or City:

Trip Planner

Search our weather history database for the weather conditions in past years. The results will help you decide how hot, cold, wet, or windy it might be!

Date:

Astronomy

Feb. 20, 2013 Rise Set
Actual Time 6:56 AM MST 5:53 PM MST
Civil Twilight 6:28 AM MST 6:20 PM MST
Nautical Twilight 5:57 AM MST 6:52 PM MST
Astronomical Twilight 5:26 AM MST 7:23 PM MST
Moon 1:18 PM MST (2/20) 3:17 AM MST (2/20)
Length of Visible Light 11h 52m
Length of Day
10h 57m
Waxing Gibbous, 76% of the Moon is Illuminated
Feb 20
Waxing Gibbous
Feb 25
Full
Mar 4
Last Quarter
Mar 11
New
Mar 19
First Quarter

Hourly Weather History & Observations

Time (MST) Temp. Windchill Dew Point Humidity Pressure Visibility Wind Dir Wind Speed Gust Speed Precip Events Conditions
12:53 AM 23.0 °F - 14.0 °F 68% 29.72 in 10.0 mi Calm Calm - N/A   Clear
1:53 AM 23.0 °F 13.9 °F 15.1 °F 72% 29.69 in 10.0 mi SSW 8.1 mph - N/A   Clear
2:53 AM 21.9 °F 15.7 °F 14.0 °F 72% 29.68 in 10.0 mi Variable 4.6 mph - N/A   Clear
3:53 AM 21.9 °F 13.4 °F 15.1 °F 75% 29.66 in 10.0 mi Variable 6.9 mph - N/A   Partly Cloudy
5:53 AM 21.9 °F 12.5 °F 12.9 °F 68% 29.68 in 10.0 mi SW 8.1 mph - N/A   Clear
6:53 AM 21.9 °F 15.7 °F 14.0 °F 72% 29.69 in 10.0 mi South 4.6 mph - N/A   Clear
7:53 AM 23.0 °F - 15.1 °F 72% 29.71 in 10.0 mi Calm Calm - N/A   Clear
9:53 AM 30.0 °F - 15.1 °F 54% 29.67 in 10.0 mi Calm Calm - N/A   Partly Cloudy
10:53 AM 34.0 °F - 15.1 °F 46% 29.65 in 10.0 mi Calm Calm - N/A   Overcast
11:53 AM 36.0 °F 33.3 °F 15.1 °F 43% 29.61 in 10.0 mi Variable 3.5 mph - N/A   Mostly Cloudy
12:53 PM 41.0 °F - 12.9 °F 32% 29.55 in 10.0 mi Calm Calm - N/A   Partly Cloudy
1:53 PM 44.1 °F 37.4 °F 18.0 °F 35% 29.49 in 10.0 mi West 13.8 mph - N/A   Clear
2:53 PM 44.1 °F 37.7 °F 19.0 °F 37% 29.48 in 10.0 mi West 12.7 mph - N/A   Partly Cloudy
3:53 PM 43.0 °F 35.7 °F 19.0 °F 38% 29.47 in 10.0 mi WSW 15.0 mph - N/A   Overcast
4:53 PM 39.9 °F 31.8 °F 21.9 °F 49% 29.51 in 10.0 mi West 15.0 mph - N/A   Overcast
6:53 PM 37.0 °F - 25.0 °F 62% 29.57 in 10.0 mi Calm Calm - N/A   Overcast
7:53 PM 37.0 °F 28.1 °F 24.1 °F 59% 29.59 in 10.0 mi West 15.0 mph 20.7 mph N/A   Overcast
8:53 PM 36.0 °F 26.3 °F 24.1 °F 62% 29.59 in 10.0 mi West 16.1 mph - N/A   Overcast
9:53 PM 35.1 °F 23.8 °F 25.0 °F 67% 29.59 in 10.0 mi West 20.7 mph 26.5 mph N/A   Overcast
10:53 PM 35.1 °F 25.2 °F 24.1 °F 64% 29.57 in 10.0 mi West 16.1 mph 25.3 mph N/A   Overcast
11:53 PM 34.0 °F 22.7 °F 25.0 °F 70% 29.58 in 10.0 mi West 19.6 mph 26.5 mph N/A   Overcast